• In Russia
  • List of Countries
  • For 7 days
  • Water Temperature
  • Satellite Maps
  • Weather Map
  • Weather Widgets
  • user-avatar
    Login

    Hourly Weather Adelaide

    Today, 22 April, Monday

    Time Temperature Precipitation Wind Pressure Humidity
    00:00 +14°C° 0 mm 3 mps 764 mmHg 71%
    01:00 +14°C° 0 mm 3 mps 764 mmHg 72%
    02:00 +13°C° 0 mm 3 mps 765 mmHg 74%
    03:00 +14°C° 0 mm 2 mps 764 mmHg 75%
    04:00 +14°C° 0 mm 2 mps 764 mmHg 76%
    05:00 +14°C° 0 mm 2 mps 765 mmHg 77%
    06:00 +14°C° 0 mm 2 mps 765 mmHg 78%
    07:00 +15°C° 0 mm 2 mps 765 mmHg 71%
    08:00 +16°C° 0 mm 2 mps 766 mmHg 63%
    09:00 +18°C° 0 mm 3 mps 766 mmHg 56%
    10:00 +19°C° 0 mm 3 mps 766 mmHg 54%
    11:00 +19°C° 0 mm 3 mps 766 mmHg 51%
    12:00 +20°C° 0 mm 4 mps 765 mmHg 48%
    13:00 +20°C° 0 mm 4 mps 765 mmHg 48%
    14:00 +19°C° 0 mm 4 mps 765 mmHg 49%
    15:00 +20°C° 0 mm 3 mps 765 mmHg 45%
    16:00 +19°C° 0 mm 4 mps 765 mmHg 51%
    17:00 +18°C° 0 mm 4 mps 766 mmHg 57%
    18:00 +15°C° 0 mm 4 mps 766 mmHg 62%
    19:00 +15°C° 0 mm 4 mps 766 mmHg 65%
    20:00 +14°C° 0 mm 4 mps 766 mmHg 68%
    21:00 +13°C° 0 mm 3 mps 767 mmHg 71%
    22:00 +13°C° 0 mm 3 mps 767 mmHg 73%
    23:00 +13°C° 0 mm 3 mps 767 mmHg 75%

    Tomorrow, 23 April, Tuesday

    Time Temperature Precipitation Wind Pressure Humidity
    00:00 +13°C° 0 mm 3 mps 766 mmHg 77%
    01:00 +12°C° 0 mm 3 mps 766 mmHg 78%
    02:00 +13°C° 0 mm 2 mps 766 mmHg 79%
    03:00 +13°C° 0 mm 2 mps 766 mmHg 80%
    04:00 +13°C° 0 mm 2 mps 767 mmHg 80%
    05:00 +13°C° 0 mm 2 mps 767 mmHg 80%
    06:00 +12°C° 0 mm 2 mps 767 mmHg 79%
    07:00 +14°C° 0 mm 2 mps 767 mmHg 71%
    08:00 +16°C° 0 mm 2 mps 767 mmHg 63%
    09:00 +17°C° 0 mm 2 mps 768 mmHg 54%
    10:00 +19°C° 0 mm 2 mps 767 mmHg 49%
    11:00 +20°C° 0 mm 2 mps 767 mmHg 44%
    12:00 +21°C° 0 mm 2 mps 767 mmHg 39%
    13:00 +21°C° 0 mm 3 mps 766 mmHg 40%
    14:00 +21°C° 0 mm 3 mps 766 mmHg 42%
    15:00 +21°C° 0 mm 4 mps 765 mmHg 43%
    16:00 +19°C° 0 mm 4 mps 766 mmHg 50%
    17:00 +18°C° 0 mm 4 mps 766 mmHg 57%
    18:00 +15°C° 0 mm 4 mps 766 mmHg 65%
    19:00 +15°C° 0 mm 4 mps 766 mmHg 69%
    20:00 +14°C° 0 mm 3 mps 766 mmHg 74%
    21:00 +13°C° 0 mm 3 mps 766 mmHg 79%
    22:00 +13°C° 0 mm 3 mps 766 mmHg 82%
    23:00 +13°C° 0 mm 3 mps 766 mmHg 84%

    Day after tomorrow, 24 April, Wednesday

    Time Temperature Precipitation Wind Pressure Humidity
    00:00 +13°C° 0 mm 3 mps 766 mmHg 87%
    01:00 +13°C° 0 mm 3 mps 766 mmHg 88%
    02:00 +14°C° 0 mm 2 mps 766 mmHg 89%
    03:00 +14°C° 0 mm 2 mps 766 mmHg 90%
    04:00 +14°C° 0 mm 2 mps 766 mmHg 90%
    05:00 +14°C° 0 mm 2 mps 766 mmHg 90%
    06:00 +13°C° 0 mm 1 mps 766 mmHg 90%
    07:00 +15°C° 0 mm 2 mps 766 mmHg 82%
    08:00 +17°C° 0 mm 2 mps 766 mmHg 73%
    09:00 +19°C° 0 mm 2 mps 767 mmHg 64%
    10:00 +20°C° 0 mm 2 mps 766 mmHg 61%
    11:00 +20°C° 0 mm 3 mps 766 mmHg 59%
    12:00 +21°C° 0 mm 3 mps 766 mmHg 56%
    13:00 +21°C° 0 mm 3 mps 765 mmHg 58%
    14:00 +21°C° 0 mm 3 mps 765 mmHg 59%
    15:00 +21°C° 0 mm 3 mps 765 mmHg 61%
    16:00 +19°C° 0 mm 3 mps 765 mmHg 66%
    17:00 +18°C° 0 mm 3 mps 765 mmHg 72%
    18:00 +17°C° 0 mm 2 mps 766 mmHg 77%
    19:00 +16°C° 0 mm 2 mps 766 mmHg 80%
    20:00 +16°C° 0 mm 2 mps 766 mmHg 82%
    21:00 +15°C° 0 mm 2 mps 766 mmHg 85%
    22:00 +15°C° 0 mm 2 mps 766 mmHg 86%
    23:00 +15°C° 0 mm 2 mps 766 mmHg 87%

    25 April, Thursday

    Time Temperature Precipitation Wind Pressure Humidity
    00:00 +14°C° 0 mm 1 mps 766 mmHg 88%
    01:00 +14°C° 0 mm 1 mps 765 mmHg 88%
    02:00 +14°C° 0 mm 1 mps 765 mmHg 88%
    03:00 +14°C° 0 mm 1 mps 765 mmHg 88%
    04:00 +14°C° 0 mm 1 mps 765 mmHg 88%
    05:00 +14°C° 0 mm 1 mps 765 mmHg 87%
    06:00 +14°C° 0 mm 1 mps 765 mmHg 87%
    07:00 +16°C° 0 mm 1 mps 765 mmHg 79%
    08:00 +17°C° 0 mm 2 mps 765 mmHg 72%
    09:00 +19°C° 0 mm 2 mps 766 mmHg 64%
    10:00 +20°C° 0 mm 3 mps 765 mmHg 61%
    11:00 +20°C° 0 mm 3 mps 765 mmHg 58%
    12:00 +21°C° 0 mm 4 mps 764 mmHg 56%
    13:00 +21°C° 0 mm 4 mps 764 mmHg 57%
    14:00 +21°C° 0 mm 5 mps 763 mmHg 59%
    15:00 +20°C° 0 mm 5 mps 763 mmHg 60%
    16:00 +19°C° 0 mm 5 mps 763 mmHg 64%
    17:00 +19°C° 0 mm 4 mps 763 mmHg 69%
    18:00 +18°C° 0 mm 4 mps 763 mmHg 74%
    19:00 +18°C° 0 mm 4 mps 763 mmHg 74%
    20:00 +16°C° 0 mm 5 mps 764 mmHg 74%
    21:00 +16°C° 0 mm 5 mps 764 mmHg 74%
    22:00 +16°C° 0 mm 5 mps 764 mmHg 74%
    23:00 +16°C° 0 mm 5 mps 764 mmHg 74%

    26 April, Friday

    Time Temperature Precipitation Wind Pressure Humidity
    00:00 +16°C° 0 mm 5 mps 764 mmHg 74%
    01:00 +16°C° 0 mm 5 mps 763 mmHg 74%
    02:00 +16°C° 0 mm 5 mps 763 mmHg 74%
    03:00 +16°C° 0 mm 5 mps 763 mmHg 74%
    04:00 +16°C° 0 mm 5 mps 763 mmHg 73%
    05:00 +15°C° 0 mm 5 mps 764 mmHg 72%
    06:00 +15°C° 0 mm 5 mps 764 mmHg 71%
    07:00 +15°C° 0 mm 5 mps 765 mmHg 67%
    08:00 +16°C° 0 mm 5 mps 766 mmHg 64%
    09:00 +16°C° 0 mm 5 mps 766 mmHg 61%
    10:00 +16°C° 0 mm 5 mps 766 mmHg 57%
    11:00 +17°C° 0 mm 5 mps 766 mmHg 54%
    12:00 +17°C° 0 mm 5 mps 766 mmHg 51%
    13:00 +17°C° 0 mm 5 mps 766 mmHg 52%
    14:00 +16°C° 0 mm 5 mps 766 mmHg 53%
    15:00 +16°C° 0 mm 5 mps 766 mmHg 54%
    16:00 +15°C° 0 mm 4 mps 766 mmHg 58%
    17:00 +14°C° 0 mm 4 mps 767 mmHg 61%
    18:00 +13°C° 0 mm 4 mps 767 mmHg 65%
    19:00 +13°C° 0 mm 3 mps 768 mmHg 68%
    20:00 +12°C° 0 mm 3 mps 768 mmHg 70%
    21:00 +12°C° 0 mm 3 mps 768 mmHg 72%
    22:00 +13°C° 0 mm 2 mps 768 mmHg 74%
    23:00 +12°C° 0 mm 2 mps 768 mmHg 75%

    27 April, Saturday

    Time Temperature Precipitation Wind Pressure Humidity
    00:00 +12°C° 0 mm 2 mps 768 mmHg 77%
    01:00 +12°C° 0 mm 1 mps 768 mmHg 78%
    02:00 +12°C° 0 mm 1 mps 768 mmHg 79%
    03:00 +11°C° 0 mm 1 mps 768 mmHg 81%
    04:00 +11°C° 0 mm 1 mps 768 mmHg 81%
    05:00 +11°C° 0 mm 1 mps 769 mmHg 81%
    06:00 +11°C° 0 mm 1 mps 769 mmHg 81%
    07:00 +13°C° 0 mm 1 mps 769 mmHg 74%
    08:00 +15°C° 0 mm 1 mps 769 mmHg 66%
    09:00 +16°C° 0 mm 1 mps 770 mmHg 59%
    10:00 +17°C° 0 mm 2 mps 769 mmHg 56%
    11:00 +18°C° 0 mm 2 mps 769 mmHg 53%
    12:00 +19°C° 0 mm 3 mps 769 mmHg 50%
    13:00 +19°C° 0 mm 3 mps 768 mmHg 51%
    14:00 +19°C° 0 mm 3 mps 768 mmHg 52%
    15:00 +19°C° 0 mm 3 mps 767 mmHg 54%
    16:00 +18°C° 0 mm 3 mps 767 mmHg 59%
    17:00 +16°C° 0 mm 2 mps 767 mmHg 65%
    18:00 +15°C° 0 mm 2 mps 767 mmHg 70%
    19:00 +14°C° 0 mm 1 mps 768 mmHg 72%
    20:00 +14°C° 0 mm 1 mps 768 mmHg 75%
    21:00 +14°C° 0 mm 1 mps 768 mmHg 77%
    22:00 +14°C° 0 mm 1 mps 768 mmHg 79%
    23:00 +14°C° 0 mm 1 mps 767 mmHg 81%
    Show more